Starlink 33534

operational
NORAD ID: 63499 Int'l Des: 2025-071 Owner: SPXS Country: US Constellation: starlink
LEOCIRCULAR

Starlink 33534について

説明を読み込み中...

リアルタイム位置

3D地球を読み込み中...

次回通過

高度履歴

Altitude vs Time

uPlot chart will show altitude changes over time

軌道要素

1 63499U 25071G 25257.37104546 .00021879 00000-0 74824-3 0 9992
2 63499 53.1562 238.9829 0001360 94.7039 265.4118 15.30218232 25751
Epoch: Sep 14, 2025 • Age: 25 hours

現在のステータス

高度 484.9 km
速度 7.62 km/s
衛星直下点 -30.28°S, 66.52°E
打ち上げ日 Apr 7, 2025
運用期間 0.4 years
タイプ internet

技術仕様

分類 Payload
質量 575.00 kg
乾燥質量 530.00 kg
総質量 575.00 kg
長さ 0.30 m
直径 4.10 m
スパン 29.00 m
形状 Box + pan
製造者 SPXS
バスタイプ Starlink V2MO
フェーズステータス In Orbit
所有者/国 SPXS/US

大規模コンステレーション

Loading constellations...